• In Uzbekistan
  • List of Countries
  • For 7 days
  • Water Temperature
  • Satellite Maps
  • Weather Map
  • Weather Widgets
  • user-avatar
    Login

    Hourly Weather Harare

    Today, 22 October, Monday

    Time Temperature Precipitation Wind Pressure Humidity
    00:00 +14°C° 0 mm 4 mps 643 mmHg 64%
    01:00 +14°C° 0 mm 4 mps 643 mmHg 65%
    02:00 +13°C° 0 mm 4 mps 642 mmHg 67%
    03:00 +13°C° 0 mm 4 mps 642 mmHg 69%
    04:00 +13°C° 0 mm 4 mps 642 mmHg 71%
    05:00 +12°C° 0 mm 4 mps 642 mmHg 73%
    06:00 +13°C° 0 mm 4 mps 643 mmHg 69%
    07:00 +13°C° 0 mm 4 mps 643 mmHg 66%
    08:00 +14°C° 0 mm 4 mps 644 mmHg 63%
    09:00 +15°C° 0 mm 4 mps 644 mmHg 58%
    10:00 +18°C° 0 mm 4 mps 644 mmHg 52%
    11:00 +19°C° 0 mm 3 mps 645 mmHg 46%
    12:00 +21°C° 0 mm 3 mps 644 mmHg 41%
    13:00 +22°C° 0 mm 3 mps 644 mmHg 35%
    14:00 +25°C° 0 mm 3 mps 644 mmHg 29%
    15:00 +25°C° 0 mm 4 mps 644 mmHg 28%
    16:00 +23°C° 0 mm 4 mps 643 mmHg 27%
    17:00 +23°C° 0 mm 4 mps 643 mmHg 26%
    18:00 +21°C° 0 mm 4 mps 643 mmHg 28%
    19:00 +19°C° 0 mm 4 mps 643 mmHg 31%
    20:00 +17°C° 0 mm 3 mps 643 mmHg 33%
    21:00 +16°C° 0 mm 3 mps 643 mmHg 36%
    22:00 +14°C° 0 mm 3 mps 644 mmHg 39%
    23:00 +13°C° 0 mm 3 mps 644 mmHg 42%

    Tomorrow, 23 October, Tuesday

    Time Temperature Precipitation Wind Pressure Humidity
    00:00 +13°C° 0 mm 3 mps 643 mmHg 47%
    01:00 +12°C° 0 mm 3 mps 643 mmHg 52%
    02:00 +11°C° 0 mm 3 mps 643 mmHg 57%
    03:00 +12°C° 0 mm 2 mps 642 mmHg 62%
    04:00 +10°C° 0 mm 2 mps 642 mmHg 67%
    05:00 +10°C° 0 mm 2 mps 642 mmHg 72%
    06:00 +12°C° 0 mm 2 mps 643 mmHg 66%
    07:00 +13°C° 0 mm 3 mps 644 mmHg 61%
    08:00 +14°C° 0 mm 3 mps 645 mmHg 56%
    09:00 +18°C° 0 mm 3 mps 645 mmHg 46%
    10:00 +20°C° 0 mm 4 mps 645 mmHg 37%
    11:00 +22°C° 0 mm 4 mps 646 mmHg 28%
    12:00 +23°C° 0 mm 4 mps 645 mmHg 25%
    13:00 +25°C° 0 mm 4 mps 645 mmHg 23%
    14:00 +27°C° 0 mm 4 mps 644 mmHg 20%
    15:00 +26°C° 0 mm 4 mps 644 mmHg 22%
    16:00 +25°C° 0 mm 4 mps 643 mmHg 24%
    17:00 +24°C° 0 mm 3 mps 643 mmHg 26%
    18:00 +21°C° 0 mm 3 mps 643 mmHg 31%
    19:00 +19°C° 0 mm 3 mps 643 mmHg 37%
    20:00 +17°C° 0 mm 3 mps 643 mmHg 42%
    21:00 +16°C° 0 mm 2 mps 643 mmHg 46%
    22:00 +15°C° 0 mm 2 mps 643 mmHg 50%
    23:00 +14°C° 0 mm 2 mps 643 mmHg 55%

    Day after tomorrow, 24 October, Wednesday

    Time Temperature Precipitation Wind Pressure Humidity
    00:00 +14°C° 0 mm 1 mps 642 mmHg 58%
    01:00 +13°C° 0 mm 1 mps 642 mmHg 62%
    02:00 +12°C° 0 mm 1 mps 641 mmHg 66%
    03:00 +12°C° 0 mm 1 mps 641 mmHg 68%
    04:00 +12°C° 0 mm 1 mps 641 mmHg 71%
    05:00 +11°C° 0 mm 1 mps 641 mmHg 74%
    06:00 +13°C° 0 mm 2 mps 642 mmHg 64%
    07:00 +15°C° 0 mm 2 mps 643 mmHg 55%
    08:00 +17°C° 0 mm 2 mps 644 mmHg 46%
    09:00 +20°C° 0 mm 3 mps 644 mmHg 37%
    10:00 +22°C° 0 mm 3 mps 644 mmHg 29%
    11:00 +25°C° 0 mm 3 mps 645 mmHg 20%
    12:00 +26°C° 0 mm 3 mps 644 mmHg 18%
    13:00 +27°C° 0 mm 3 mps 644 mmHg 17%
    14:00 +28°C° 0 mm 3 mps 643 mmHg 15%
    15:00 +27°C° 0 mm 3 mps 642 mmHg 17%
    16:00 +26°C° 0 mm 3 mps 642 mmHg 18%
    17:00 +25°C° 0 mm 3 mps 641 mmHg 20%
    18:00 +24°C° 0 mm 3 mps 642 mmHg 25%
    19:00 +21°C° 0 mm 3 mps 642 mmHg 30%
    20:00 +20°C° 0 mm 3 mps 642 mmHg 35%
    21:00 +19°C° 0 mm 2 mps 642 mmHg 39%
    22:00 +18°C° 0 mm 2 mps 642 mmHg 44%
    23:00 +17°C° 0 mm 2 mps 642 mmHg 48%

    25 October, Thursday

    Time Temperature Precipitation Wind Pressure Humidity
    00:00 +17°C° 0 mm 2 mps 641 mmHg 51%
    01:00 +17°C° 0 mm 2 mps 641 mmHg 53%
    02:00 +16°C° 0 mm 1 mps 640 mmHg 55%
    03:00 +15°C° 0 mm 1 mps 640 mmHg 58%
    04:00 +15°C° 0 mm 1 mps 640 mmHg 60%
    05:00 +14°C° 0 mm 1 mps 640 mmHg 63%
    06:00 +16°C° 0 mm 1 mps 641 mmHg 56%
    07:00 +18°C° 0 mm 2 mps 642 mmHg 49%
    08:00 +20°C° 0 mm 2 mps 643 mmHg 42%
    09:00 +23°C° 0 mm 2 mps 643 mmHg 34%
    10:00 +26°C° 0 mm 2 mps 643 mmHg 27%
    11:00 +28°C° 0 mm 2 mps 644 mmHg 20%
    12:00 +29°C° 0 mm 2 mps 643 mmHg 18%
    13:00 +29°C° 0 mm 2 mps 642 mmHg 17%
    14:00 +30°C° 0 mm 2 mps 642 mmHg 15%
    15:00 +29°C° 0 mm 2 mps 642 mmHg 15%
    16:00 +29°C° 0 mm 2 mps 641 mmHg 16%
    17:00 +28°C° 0 mm 3 mps 641 mmHg 17%
    18:00 +26°C° 0 mm 2 mps 641 mmHg 19%
    19:00 +24°C° 0 mm 2 mps 641 mmHg 22%
    20:00 +21°C° 0 mm 2 mps 641 mmHg 24%
    21:00 +20°C° 0 mm 2 mps 641 mmHg 28%
    22:00 +20°C° 0 mm 2 mps 641 mmHg 32%
    23:00 +19°C° 0 mm 3 mps 641 mmHg 36%

    26 October, Friday

    Time Temperature Precipitation Wind Pressure Humidity
    00:00 +18°C° 0 mm 2 mps 640 mmHg 40%
    01:00 +17°C° 0 mm 2 mps 640 mmHg 43%
    02:00 +16°C° 0 mm 2 mps 639 mmHg 46%
    03:00 +16°C° 0 mm 1 mps 639 mmHg 49%
    04:00 +15°C° 0 mm 1 mps 639 mmHg 51%
    05:00 +15°C° 0 mm 1 mps 639 mmHg 53%
    06:00 +19°C° 0 mm 1 mps 641 mmHg 46%
    07:00 +20°C° 0 mm 2 mps 642 mmHg 39%
    08:00 +24°C° 0 mm 2 mps 643 mmHg 32%
    09:00 +26°C° 0 mm 2 mps 643 mmHg 27%
    10:00 +29°C° 0 mm 2 mps 644 mmHg 22%
    11:00 +31°C° 0 mm 2 mps 644 mmHg 17%
    12:00 +32°C° 0 mm 2 mps 643 mmHg 15%
    13:00 +34°C° 0 mm 2 mps 643 mmHg 14%
    14:00 +35°C° 0 mm 2 mps 642 mmHg 12%
    15:00 +34°C° 0 mm 2 mps 642 mmHg 13%
    16:00 +33°C° 0 mm 3 mps 642 mmHg 13%
    17:00 +31°C° 0 mm 3 mps 641 mmHg 14%
    18:00 +29°C° 0 mm 3 mps 641 mmHg 16%
    19:00 +27°C° 0 mm 3 mps 641 mmHg 18%
    20:00 +25°C° 0 mm 3 mps 641 mmHg 20%
    21:00 +24°C° 0 mm 3 mps 641 mmHg 22%
    22:00 +21°C° 0 mm 2 mps 641 mmHg 24%
    23:00 +20°C° 0 mm 2 mps 641 mmHg 25%

    27 October, Saturday

    Time Temperature Precipitation Wind Pressure Humidity
    00:00 +20°C° 0 mm 2 mps 641 mmHg 28%
    01:00 +19°C° 0 mm 2 mps 640 mmHg 31%
    02:00 +19°C° 0 mm 1 mps 640 mmHg 34%
    03:00 +18°C° 0 mm 1 mps 640 mmHg 37%
    04:00 +18°C° 0 mm 1 mps 640 mmHg 40%
    05:00 +16°C° 0 mm 1 mps 640 mmHg 42%
    06:00 +19°C° 0 mm 2 mps 641 mmHg 37%
    07:00 +21°C° 0 mm 3 mps 642 mmHg 31%
    08:00 +24°C° 0 mm 3 mps 643 mmHg 25%
    09:00 +26°C° 0 mm 3 mps 644 mmHg 20%
    10:00 +28°C° 0 mm 4 mps 644 mmHg 16%
    11:00 +30°C° 0 mm 4 mps 644 mmHg 11%
    12:00 +32°C° 0 mm 4 mps 643 mmHg 10%
    13:00 +33°C° 0 mm 4 mps 643 mmHg 9%
    14:00 +33°C° 0 mm 4 mps 642 mmHg 9%
    15:00 +33°C° 0 mm 4 mps 642 mmHg 9%
    16:00 +32°C° 0 mm 4 mps 642 mmHg 10%
    17:00 +30°C° 0 mm 5 mps 642 mmHg 11%
    18:00 +28°C° 0 mm 4 mps 642 mmHg 15%
    19:00 +26°C° 0 mm 3 mps 642 mmHg 19%
    20:00 +22°C° 0 mm 3 mps 642 mmHg 22%
    21:00 +21°C° 0 mm 3 mps 641 mmHg 28%
    22:00 +20°C° 0 mm 2 mps 641 mmHg 33%
    23:00 +19°C° 0 mm 2 mps 641 mmHg 38%

    28 October, Sunday

    Time Temperature Precipitation Wind Pressure Humidity
    00:00 +18°C° 0 mm 2 mps 641 mmHg 42%
    01:00 +17°C° 0 mm 2 mps 640 mmHg 45%
    02:00 +18°C° 0 mm 1 mps 640 mmHg 49%
    03:00 +16°C° 0 mm 2 mps 640 mmHg 51%
    04:00 +16°C° 0 mm 2 mps 640 mmHg 53%
    05:00 +15°C° 0 mm 2 mps 640 mmHg 56%
    06:00 +18°C° 0 mm 2 mps 641 mmHg 48%
    07:00 +20°C° 0 mm 3 mps 642 mmHg 41%
    08:00 +22°C° 0 mm 3 mps 643 mmHg 34%
    09:00 +25°C° 0 mm 3 mps 643 mmHg 29%
    10:00 +27°C° 0 mm 3 mps 643 mmHg 25%
    11:00 +30°C° 0 mm 4 mps 644 mmHg 21%
    12:00 +30°C° 0 mm 4 mps 643 mmHg 20%
    13:00 +32°C° 0 mm 4 mps 642 mmHg 20%
    14:00 +33°C° 0 mm 4 mps 642 mmHg 19%
    15:00 +32°C° 0 mm 4 mps 641 mmHg 22%
    16:00 +30°C° 0 mm 5 mps 641 mmHg 24%
    17:00 +29°C° 0 mm 5 mps 641 mmHg 27%
    18:00 +27°C° 0 mm 4 mps 641 mmHg 31%
    19:00 +25°C° 0 mm 4 mps 641 mmHg 36%
    20:00 +22°C° 0 mm 4 mps 641 mmHg 40%
    21:00 +21°C° 0 mm 4 mps 641 mmHg 43%
    22:00 +20°C° 0 mm 3 mps 641 mmHg 46%
    23:00 +19°C° 0 mm 3 mps 641 mmHg 48%
    Show more